Location: Ecklingerode
(51.5036°N, 10.3122°E)
Time: 14:41:48
(UTC+00:00)

Cosmos 2278 Rocket - Pass Details

Date: 29 October 2020
Orbit: 840 x 847 km, 71.0° (Epoch: 28 November)

Event Time Altitude Azimuth Distance (km) Brightness Sun altitude
Rises 16:31:11 0° 297° (WNW) 3,405 6.2 -6.0°
Reaches altitude 10° 16:35:50 10° 331° (NNW) 2,473 4.8 -6.7°
Maximum altitude 16:37:28 11° 348° (NNW) 2,391 4.6 -6.9°
Drops below altitude 10° 16:39:07 10° 5° (N) 2,475 4.5 -7.2°
Enters shadow 16:43:20 - 38° (NE) 3,298 4.8 -7.8°
